COOK73 UITT-UUYY

Flight info

Callsign COOK73
Flight time N/A
Altitude 36000
Route NONLI4K NONLI W273 LIMKI G124 TIKUS G490 SEVIK P989 NETLU T756 SOGTE N174 UGBAT UGBAT1M
Aircraft C25C/M-SDE2E3FGHRWXY/LB1

Departure

Time 2026-04-28 22:40
Airport Ust-Kut Airport (UITT)

Arrival

Time N/A
Airport Syktyvkar Airport (UUYY)
Time Latitude Longitude Altitude Speed Heading
2026-04-28 22:28 56.85806 105.71635 2232 ft 0 kts 114°
2026-04-28 22:36 56.85808 105.71655 2239 ft 4 kts 57°
2026-04-28 22:36 56.85828 105.71727 2244 ft 9 kts 101°
2026-04-28 22:37 56.85805 105.71846 2236 ft 10 kts 110°
2026-04-28 22:37 56.85817 105.71952 2236 ft 9 kts 39°
2026-04-28 22:37 56.85873 105.71975 2238 ft 8 kts 344°
2026-04-28 22:37 56.85919 105.71931 2238 ft 7 kts 324°
2026-04-28 22:38 56.85956 105.71873 2237 ft 7 kts 316°
2026-04-28 22:38 56.85997 105.71800 2238 ft 10 kts 313°
2026-04-28 22:38 56.86048 105.71686 2239 ft 12 kts 304°
2026-04-28 22:38 56.86096 105.71569 2239 ft 10 kts 328°
2026-04-28 22:39 56.86152 105.71581 2239 ft 7 kts 42°
2026-04-28 22:39 56.86156 105.71651 2239 ft 0 kts 115°
2026-04-28 22:39 56.86156 105.71653 2239 ft 3 kts 115°
2026-04-28 22:39 56.86050 105.72033 2237 ft 74 kts 117°
2026-04-28 22:40 56.85699 105.73314 2375 ft 137 kts 116°
2026-04-28 22:40 56.85253 105.74867 3044 ft 145 kts 120°
2026-04-28 22:40 56.84689 105.76773 3288 ft 194 kts 119°
2026-04-28 22:40 56.84061 105.79182 3756 ft 225 kts 99°
2026-04-28 22:41 56.84366 105.81872 4772 ft 217 kts 56°
2026-04-28 22:41 56.85381 105.83784 5807 ft 208 kts 21°
2026-04-28 22:41 56.86751 105.84397 6822 ft 201 kts 351°
2026-04-28 22:41 56.88051 105.83653 7852 ft 195 kts 323°
2026-04-28 22:42 56.88979 105.81888 8918 ft 194 kts 306°
2026-04-28 22:42 56.89803 105.79911 9974 ft 197 kts 305°
2026-04-28 22:42 56.90628 105.77889 10964 ft 200 kts 305°
2026-04-28 22:42 56.91477 105.75850 11905 ft 203 kts 305°
2026-04-28 22:43 56.92342 105.73788 12869 ft 206 kts 305°
2026-04-28 22:43 56.93217 105.71688 13818 ft 209 kts 305°
2026-04-28 22:43 56.94108 105.69556 14656 ft 212 kts 304°
2026-04-28 22:43 56.95005 105.67402 15483 ft 214 kts 303°
2026-04-28 22:44 56.95909 105.65226 16307 ft 216 kts 303°
2026-04-28 22:44 56.96826 105.63025 17151 ft 218 kts 302°
2026-04-28 22:44 56.97749 105.60804 18006 ft 221 kts 302°
2026-04-28 22:44 56.98681 105.58553 18825 ft 223 kts 301°
2026-04-28 22:45 56.99622 105.56292 19615 ft 223 kts 300°
2026-04-28 22:45 57.00562 105.54023 20448 ft 224 kts 299°
2026-04-28 22:45 57.01505 105.51741 21276 ft 225 kts 298°
2026-04-28 22:45 57.02454 105.49449 22119 ft 226 kts 297°
2026-04-28 22:46 57.03408 105.47139 22935 ft 228 kts 296°
2026-04-28 22:46 57.04367 105.44812 23722 ft 229 kts 295°
2026-04-28 22:46 57.05324 105.42495 24338 ft 231 kts 295°
2026-04-28 22:46 57.06301 105.40119 24925 ft 235 kts 296°
2026-04-28 22:47 57.07292 105.37715 25495 ft 237 kts 296°
2026-04-28 22:47 57.08292 105.35280 26066 ft 240 kts 296°
2026-04-28 22:47 57.09306 105.32811 26614 ft 243 kts 296°
2026-04-28 22:47 57.10329 105.30318 27159 ft 246 kts 296°
2026-04-28 22:48 57.11366 105.27789 27692 ft 249 kts 296°
2026-04-28 22:48 57.12412 105.25232 28225 ft 252 kts 296°
2026-04-28 22:48 57.13474 105.22641 28783 ft 254 kts 296°
2026-04-28 22:48 57.14534 105.20050 29396 ft 253 kts 296°
2026-04-28 22:49 57.15593 105.17458 30001 ft 252 kts 296°
2026-04-28 22:49 57.16649 105.14869 30521 ft 253 kts 296°
2026-04-28 22:49 57.17707 105.12262 30945 ft 255 kts 297°
2026-04-28 22:49 57.18778 105.09630 31359 ft 258 kts 298°
2026-04-28 22:50 57.19858 105.06974 31789 ft 260 kts 298°
2026-04-28 22:50 57.20931 105.04332 32207 ft 262 kts 299°
2026-04-28 22:50 57.22024 105.01636 32626 ft 263 kts 300°
2026-04-28 22:50 57.23127 104.98918 33051 ft 265 kts 300°
2026-04-28 22:51 57.24231 104.96185 33468 ft 267 kts 301°
2026-04-28 22:51 57.25343 104.93433 33874 ft 268 kts 301°
2026-04-28 22:51 57.26461 104.90668 34276 ft 269 kts 302°
2026-04-28 22:51 57.27581 104.87888 34637 ft 270 kts 302°
2026-04-28 22:52 57.28703 104.85099 34992 ft 271 kts 302°
2026-04-28 22:52 57.29831 104.82301 35334 ft 272 kts 302°
2026-04-28 22:52 57.30958 104.79492 35685 ft 272 kts 303°
2026-04-28 22:52 57.32088 104.76677 36014 ft 273 kts 303°
2026-04-28 22:53 57.33235 104.73813 36147 ft 282 kts 303°
2026-04-28 22:53 57.34422 104.70840 36195 ft 293 kts 303°
2026-04-28 22:53 57.35660 104.67746 36209 ft 305 kts 303°
2026-04-28 22:53 57.36945 104.64529 36207 ft 316 kts 303°
2026-04-28 22:54 57.38277 104.61190 36209 ft 328 kts 303°
2026-04-28 22:54 57.40989 104.54378 36211 ft 347 kts 303°
2026-04-28 22:55 57.43929 104.46966 36212 ft 365 kts 303°
2026-04-28 22:55 57.46992 104.39225 36210 ft 379 kts 304°
2026-04-28 22:56 57.50161 104.31188 36210 ft 391 kts 304°
2026-04-28 22:56 57.53389 104.22972 36213 ft 400 kts 304°
2026-04-28 22:57 57.56702 104.14511 36212 ft 408 kts 304°
2026-04-28 22:57 57.60062 104.05896 36210 ft 414 kts 304°
2026-04-28 22:58 57.63461 103.97153 36211 ft 419 kts 304°
2026-04-28 22:58 57.66890 103.88301 36206 ft 422 kts 304°
2026-04-28 22:59 57.70343 103.79356 36203 ft 425 kts 304°
2026-04-28 22:59 57.73786 103.70400 36204 ft 428 kts 304°
2026-04-28 23:00 57.77271 103.61301 36198 ft 430 kts 304°
2026-04-28 23:00 57.80755 103.52166 36195 ft 431 kts 304°
2026-04-28 23:01 57.83648 103.44565 36191 ft 426 kts 304°
2026-04-28 23:01 57.87045 103.35593 36182 ft 418 kts 304°
2026-04-28 23:02 57.90416 103.26715 36173 ft 415 kts 305°
2026-04-28 23:02 57.93879 103.18064 36169 ft 412 kts 305°
2026-04-28 23:03 57.97296 103.09426 36168 ft 410 kts 305°
2026-04-28 23:03 58.00703 103.00818 36170 ft 408 kts 305°
2026-04-28 23:04 58.04085 102.92227 36168 ft 407 kts 305°
2026-04-28 23:04 58.09115 102.79406 36171 ft 406 kts 305°
2026-04-28 23:05 58.12464 102.70826 36163 ft 405 kts 305°
2026-04-28 23:05 58.15472 102.61856 36161 ft 403 kts 296°
2026-04-28 23:06 58.17593 102.52025 36167 ft 403 kts 291°
2026-04-28 23:06 58.19659 102.42151 36166 ft 403 kts 291°
2026-04-28 23:07 58.21702 102.32261 36163 ft 403 kts 291°
2026-04-28 23:07 58.23744 102.22370 36167 ft 402 kts 291°
2026-04-28 23:08 58.25776 102.12470 36165 ft 402 kts 291°
2026-04-28 23:08 58.27800 102.02560 36168 ft 402 kts 291°
2026-04-28 23:09 58.29803 101.92699 36167 ft 402 kts 291°
2026-04-28 23:09 58.31810 101.82770 36169 ft 402 kts 291°